Regional Weather Roundup
Issued by NWS

Home | Current Version | Previous Version | Graphics & Text | Print | Product List | Glossary On
Versions: 1 2 3 4 5 6 7 8 9 10 11 12 13 14 15 16 17 18 19 20 21 22 23 24 25 26 27 28 29 30 31 32 33 34 35 36 37 38 39 40 41 42 43 44 45 46 47 48 49 50
000
ASUS45 KSLC 160310
RWRUT

UTAH REGIONAL WEATHER ROUNDUP
NATIONAL WEATHER SERVICE SALT LAKE CITY UT
800 PM MST MON JAN 15 2018

UTZ001>011-023>025-160400-

NORTHERN UTAH

CITY           SKY/WX    TMP DP  RH WIND       PRES   REMARKS
BRIGHAM CITY   PTCLDY    33  28  82 CALM      30.32R
HILL AFB       PTCLDY    37  28  70 NE5       30.30R WCI  33
LOGAN          CLEAR     29  23  78 CALM      30.33S
OGDEN          PTCLDY    33  28  81 SW3       30.30R
SALT LAKE CITY MOCLDY    36  31  82 CALM      30.30S
TOOELE VALLEY  MOCLDY    30  28  93 SE5       30.31F WCI  25
WENDOVER       MOCLDY    33  24  69 CALM      30.30F
HEBER CITY       N/A     32  23  69 E5        30.30S WCI  27
WEST JORDAN    PTCLDY    33  29  88 CALM      30.32R

$$

UTZ011>015-024>027-160400-

CENTRAL/NORTHEAST UTAH

CITY           SKY/WX    TMP DP  RH WIND       PRES   REMARKS
PROVO AIRPORT  PTCLDY    33  28  81 N6        30.32R WCI  28
MOAB/CANYONLAN PTCLDY    41  24  51 NE15      30.29R
DELTA          MOCLDY    36  30  80 NE3       30.29R
PRICE          PTCLDY    36  23  59 NE17      30.31R WCI  26
ROOSEVELT      CLOUDY    36  27  69 CALM      30.43S
VERNAL         CLOUDY    35  17  47 E8        30.42R WCI  29

$$

UTZ013>016-019>022-027-160400-

SOUTHERN UTAH

CITY           SKY/WX    TMP DP  RH WIND       PRES   REMARKS
BRYCE CANYON   CLEAR     26  24  92 S5        30.28S WCI  20
CEDAR CITY     PTCLDY    33  27  78 CALM      30.24F
MILFORD        PTCLDY    32  27  81 N6        30.26S WCI  26
ST GEORGE      PTCLDY    50  38  63 S3        30.18R
HANKSVILLE     MOCLDY    34  23  64 N5        30.32R WCI  30
BLANDING         N/A     31  22  68 NW7       30.31R WCI  25

$$

REGIONAL REPORTS     COLORADO/ARIZONA

CITY           SKY/WX    TMP DP  RH WIND       PRES   REMARKS
CRAIG, CO      CLEAR     14   1  56 CALM      30.41R
GRAND JUNCTION CLEAR     37  18  46 CALM      30.33R
RIFLE, CO      PTCLDY    33  17  51 NW9       30.36R WCI  25
MONTROSE, CO   CLEAR     29  20  69 S6        30.34R WCI  23
CORTEZ, CO     PTCLDY    31  23  72 VRB3      30.22R
COLORADO CITY    N/A     36  32  87 SE7       30.23R WCI  30
PAGE, AZ       CLEAR     42  31  64 SW3       30.23R HAZE
GRAND CANYON   CLEAR     33  24  69 CALM      30.25R
KINGMAN, AZ    CLEAR     47  35  63 E7        30.17R
FLAGSTAFF, AZ  CLEAR     31  20  63 CALM      30.26R

$$

REGIONAL REPORTS    NEVADA/IDAHO/WYOMING

CITY           SKY/WX    TMP DP  RH WIND       PRES   REMARKS
LAS VEGAS, NV  MOCLDY    60  38  43 CALM      30.13R
ELY, NY        PTCLDY    31  21  66 S10       30.27R WCI  22
ELKO, NV       PTCLDY    33  28  81 CALM      30.24R
POCATELLO, ID  CLEAR     30  26  85 S3        30.32S
BURLEY, ID     PTCLDY    37  28  70 NE8       30.28S WCI  31
FORT BRIDGER,  CLOUDY    25  19  77 E8        30.41S WCI  16
EVANSTON, WY   CLEAR     25  18  74 E14       30.35S WCI  13
ROCK SPRINGS,  CLEAR     17   8  67 E8        30.41S WCI   7

$$



USA.gov is the U.S. government's official web portal to all federal, state and local government web resources and services.